This demonstration page uses our WeatherBlox Daily Observations layout. Learn more.

Left ArrowRight Arrow

38.83388, -104.82136

Hourly Observations for March 13, 2018

Temp ( °F °C ) Dew Point ( °F °C ) Humidity (%) Winds ( mph kmh ) Pressure ( in mb ) Visibility ( mi km ) Precip ( " mm )
12:58 am 00:58 Cloudy 38 3.4 11 -11.6 33 33 N 7 11 29.90 1012 10 16 0.00 0.00
1:58 am 01:58 Mostly Clear 35 1.5 13 -10.6 41 41 Calm 29.89 1012 10 16 0.00 0.00
2:58 am 02:58 Clear 32 0.1 14 -10 47 47 Calm 29.92 1013 10 16 0.00 0.00
3:58 am 03:58 Mostly Clear 31 -0.4 14 -9.8 49 49 Calm 29.91 1013 10 16 0.00 0.00
4:58 am 04:58 Mostly Cloudy 32 0.1 15 -9.3 50 50 Calm 29.92 1013 10 16 0.00 0.00
5:58 am 05:58 Clear 31 -0.7 15 -9.7 51 51 Calm 29.95 1014 10 16 0.00 0.00
6:58 am 06:58 Clear 31 -0.8 15 -9.2 53 53 Calm 29.95 1014 10 16 0.00 0.00
7:58 am 07:58 Sunny 30 -0.9 15 -9.2 54 54 SSE 3 6 29.96 1015 10 16 0.00 0.00
8:58 am 08:58 Sunny 31 -0.7 16 -8.8 55 55 SE 8 13 29.97 1015 10 16 0.00 0.00
9:58 am 09:58 Sunny 34 1 17 -8.5 50 50 SE 8 13 29.97 1015 10 16 0.00 0.00
10:58 am 10:58 Sunny 38 3.2 16 -8.8 41 41 ESE 12 19 29.97 1015 10 16 0.00 0.00
11:58 am 11:58 Sunny 41 5 16 -8.8 36 36 SE 12 19 29.94 1014 10 16 0.00 0.00
12:58 pm 12:58 Mostly Cloudy 42 5.8 17 -8.6 35 35 SE 16 26 29.92 1013 10 16 0.00 0.00
1:58 pm 13:58 Sunny 44 6.9 16 -8.9 32 32 SSE 20 31 29.91 1013 10 16 0.00 0.00
2:58 pm 14:58 Sunny 46 7.7 15 -9.4 29 29 SSE 20 31 29.87 1012 10 16 0.00 0.00
3:58 pm 15:58 Partly Cloudy 45 7 15 -9.5 30 30 SSE 15 24 29.88 1012 10 16 0.00 0.00
4:58 pm 16:58 Sunny 43 6 15 -9.4 32 32 SSE 22 35 29.87 1012 10 16 0.00 0.00
5:58 pm 17:58 Sunny 41 5.2 16 -8.9 36 36 SSE 21 33 29.88 1012 10 16 0.00 0.00
6:58 pm 18:58 Sunny 40 4.6 17 -8.1 40 40 S 12 19 29.89 1012 10 16 0.00 0.00
7:58 pm 19:58 Mostly Clear 40 4.5 18 -7.9 40 40 S 13 20 29.90 1013 10 16 0.00 0.00
8:58 pm 20:58 Mostly Cloudy 40 4.4 18 -7.7 41 41 S 8 13 29.91 1013 10 16 0.00 0.00
9:58 pm 21:58 Mostly Cloudy 38 3.3 23 -5 55 55 SSE 10 17 29.91 1013 10 16 0.00 0.00
10:58 pm 22:58 Mostly Cloudy 36 2.1 24 -4.7 61 61 Calm 29.88 1012 10 16 0.00 0.00
11:58 pm 23:58 Mostly Cloudy 36 2 24 -4.7 62 62 Calm 29.85 1011 10 16 0.00 0.00

Powered by AerisWeather